Simultaneous Nadir Overpasses (SNOs) Predictions

Prediction of SNOs between GOES-17 and AQUA Satellite Orbit:

Table of predicted SNOs for the next 14.0 days since TLE Epoch: 12/31/2022
Index Date Time (GOES-17) GOES-17 Lat,Lon AQUA Lat,Lon Distance(km) Time Diff (sec)
1 01/01/2023 10:46:05 0.02,-137.33 -0.23,-136.04 146.37 80
2 01/01/2023 23:07:16 -0.02,-137.32 -0.86,-141.17 438.00 80
3 01/03/2023 22:54:14 -0.02,-137.31 -0.15,-138.00 78.17 80
4 01/05/2023 22:43:51 -0.02,-137.29 0.52,-134.82 281.22 80
5 01/06/2023 11:04:53 0.02,-137.29 0.58,-139.91 298.63 80
6 01/08/2023 10:49:09 0.01,-137.26 -0.07,-136.73 60.32 80
7 01/10/2023 10:36:05 0.01,-137.23 -0.76,-133.54 418.90 80
8 01/10/2023 22:59:55 -0.01,-137.22 -0.34,-138.67 165.84 80
9 01/12/2023 22:44:11 -0.00,-137.18 0.38,-135.49 192.73 80
10 01/13/2023 11:07:52 0.00,-137.18 0.71,-140.59 387.21 80
